TimeEDT,TemperatureF,Dew PointF,Humidity,Sea Level PressureIn,VisibilityMPH,Wind Direction,Wind SpeedMPH,Gust SpeedMPH,PrecipitationIn,Events,Conditions,WindDirDegrees,DateUTC
12:15 AM,55.4,42.8,63,30.16,10.0,WSW,15.0,18.4,N/A,,Clear,250,2012-10-12 04:15:00
12:55 AM,55.4,39.2,54,30.16,10.0,West,15.0,19.6,N/A,,Clear,260,2012-10-12 04:55:00
1:15 AM,55.4,39.2,54,30.15,10.0,West,10.4,17.3,N/A,,Clear,260,2012-10-12 05:15:00
1:35 AM,55.4,39.2,54,30.14,10.0,WSW,12.7,19.6,N/A,,Clear,250,2012-10-12 05:35:00
2:15 AM,55.4,39.2,54,30.14,10.0,West,12.7,20.7,N/A,,Clear,260,2012-10-12 06:15:00
2:35 AM,55.4,39.2,54,30.12,10.0,WSW,17.3,23.0,N/A,,Clear,250,2012-10-12 06:35:00
2:55 AM,55.4,35.6,47,30.12,10.0,WSW,19.6,-,N/A,,Clear,250,2012-10-12 06:55:00
3:15 AM,55.4,33.8,44,30.12,10.0,WSW,15.0,21.9,N/A,,Clear,250,2012-10-12 07:15:00
3:35 AM,55.4,35.6,47,30.11,10.0,WSW,16.1,23.0,N/A,,Clear,250,2012-10-12 07:35:00
3:55 AM,55.4,35.6,47,30.10,10.0,WSW,16.1,20.7,N/A,,Clear,250,2012-10-12 07:55:00
4:15 AM,55.4,37.4,51,30.10,10.0,WSW,13.8,20.7,N/A,,Clear,250,2012-10-12 08:15:00
4:35 AM,55.4,39.2,54,30.10,10.0,WSW,13.8,20.7,N/A,,Clear,250,2012-10-12 08:35:00
4:55 AM,55.4,39.2,54,30.09,10.0,WSW,18.4,21.9,N/A,,Clear,250,2012-10-12 08:55:00
5:15 AM,55.4,37.4,51,30.08,10.0,WSW,19.6,26.5,N/A,,Clear,250,2012-10-12 09:15:00
5:35 AM,55.4,37.4,51,30.07,10.0,WSW,16.1,23.0,N/A,,Clear,250,2012-10-12 09:35:00
6:35 AM,55.4,37.4,51,30.06,10.0,WSW,16.1,24.2,N/A,,Clear,250,2012-10-12 10:35:00
6:55 AM,55.4,37.4,51,30.06,10.0,WSW,17.3,25.3,N/A,,Clear,250,2012-10-12 10:55:00
7:35 AM,55.4,39.2,54,30.06,10.0,WSW,16.1,26.5,N/A,,Clear,250,2012-10-12 11:35:00
7:55 AM,57.2,39.2,51,30.05,10.0,WSW,18.4,26.5,N/A,,Clear,250,2012-10-12 11:55:00
8:35 AM,57.2,41.0,55,30.06,10.0,West,19.6,26.5,N/A,,Clear,260,2012-10-12 12:35:00
8:55 AM,57.2,42.8,59,30.06,10.0,West,18.4,25.3,N/A,,Clear,260,2012-10-12 12:55:00
9:15 AM,57.2,42.8,59,30.07,10.0,West,13.8,25.3,N/A,,Clear,270,2012-10-12 13:15:00
9:35 AM,59.0,42.8,55,30.07,10.0,West,15.0,23.0,N/A,,Clear,270,2012-10-12 13:35:00
9:55 AM,60.8,44.6,55,30.07,10.0,West,15.0,20.7,N/A,,Clear,270,2012-10-12 13:55:00
10:15 AM,60.8,44.6,55,30.08,10.0,West,13.8,20.7,N/A,,Clear,270,2012-10-12 14:15:00
10:35 AM,60.8,46.4,59,30.08,10.0,WNW,11.5,20.7,N/A,,Partly Cloudy,290,2012-10-12 14:35:00
11:35 AM,59.0,39.2,48,30.08,10.0,NW,11.5,18.4,N/A,,Clear,320,2012-10-12 15:35:00
12:15 PM,55.4,37.4,51,30.08,10.0,NNW,10.4,19.6,N/A,,Mostly Cloudy,340,2012-10-12 16:15:00
12:35 PM,53.6,37.4,54,30.08,10.0,North,13.8,20.7,N/A,,Overcast,350,2012-10-12 16:35:00
12:55 PM,51.8,39.2,62,30.09,10.0,NNW,18.4,21.9,N/A,,Overcast,340,2012-10-12 16:55:00
1:15 PM,48.2,39.2,71,30.10,10.0,North,11.5,20.7,N/A,,Overcast,350,2012-10-12 17:15:00
1:35 PM,48.2,39.2,71,30.11,10.0,NNW,12.7,19.6,N/A,,Overcast,340,2012-10-12 17:35:00
2:35 PM,48.2,41.0,76,30.10,10.0,NNW,10.4,16.1,N/A,,Overcast,340,2012-10-12 18:35:00
2:55 PM,48.2,39.2,71,30.12,10.0,NNW,10.4,19.6,N/A,,Overcast,340,2012-10-12 18:55:00
3:55 PM,51.8,35.6,54,30.14,10.0,North,12.7,21.9,N/A,,Mostly Cloudy,350,2012-10-12 19:55:00
4:15 PM,51.8,37.4,58,30.14,10.0,NNW,12.7,16.1,N/A,,Scattered Clouds,340,2012-10-12 20:15:00
4:35 PM,51.8,35.6,54,30.14,10.0,NNW,12.7,20.7,N/A,,Clear,340,2012-10-12 20:35:00
5:15 PM,51.8,32.0,47,30.16,10.0,NNW,11.5,21.9,N/A,,Clear,330,2012-10-12 21:15:00
6:15 PM,51.8,30.2,44,30.20,10.0,NNW,13.8,19.6,N/A,,Clear,330,2012-10-12 22:15:00
7:15 PM,50.0,32.0,50,30.23,10.0,NNW,13.8,21.9,N/A,,Clear,340,2012-10-12 23:15:00
7:35 PM,50.0,30.2,47,30.24,10.0,NNW,13.8,23.0,N/A,,Clear,340,2012-10-12 23:35:00
8:15 PM,50.0,28.4,43,30.27,10.0,NNW,17.3,24.2,N/A,,Clear,340,2012-10-13 00:15:00
8:35 PM,48.2,30.2,50,30.28,10.0,North,15.0,21.9,N/A,,Clear,350,2012-10-13 00:35:00
8:55 PM,48.2,26.6,43,30.30,10.0,North,15.0,26.5,N/A,,Clear,350,2012-10-13 00:55:00
9:15 PM,48.2,26.6,43,30.31,10.0,North,11.5,25.3,N/A,,Clear,350,2012-10-13 01:15:00
10:15 PM,46.4,26.6,46,30.33,10.0,North,13.8,23.0,N/A,,Clear,350,2012-10-13 02:15:00
10:35 PM,46.4,28.4,50,30.34,10.0,North,17.3,25.3,N/A,,Clear,360,2012-10-13 02:35:00
10:55 PM,44.6,26.6,49,30.36,10.0,North,17.3,25.3,N/A,,Clear,360,2012-10-13 02:55:00
11:15 PM,44.6,26.6,49,30.36,10.0,North,18.4,26.5,N/A,,Clear,350,2012-10-13 03:15:00
11:35 PM,44.6,24.8,46,30.37,10.0,North,12.7,24.2,N/A,,Clear,360,2012-10-13 03:35:00
11:55 PM,42.8,24.8,49,30.38,10.0,North,16.1,23.0,N/A,,Clear,360,2012-10-13 03:55:00